Regional Weather Roundup
Issued by NWS Upton, NY

Current Version | Previous Version | Graphics & Text | Print | Product List | Glossary Off
Versions: 1 2 3 4 5 6 7 8 9 10 11 12 13 14 15 16 17 18 19 20 21 22 23 24 25 26 27 28 29 30 31 32 33 34 35 36 37 38 39 40 41 42 43 44 45 46 47 48 49 50

000
ASUS41 KOKX 291709
RWROKX

REGIONAL WEATHER ROUNDUP
NATIONAL WEATHER SERVICE NEW YORK NY
100 PM EDT THU SEP 29 2016

NOTE: "FAIR" INDICATES FEW OR NO CLOUDS BELOW 12,000 FEET WITH NO
SIGNIFICANT WEATHER AND/OR OBSTRUCTIONS TO VISIBILITY.

NYZ071-072-176-178-NJZ106-104-291800-
NEW YORK CITY METRO AREA

CITY           SKY/WX    TMP DP  RH WIND       PRES   REMARKS
Central Park   CLOUDY    62  53  72 E8G22     30.40S
LaGuardia APRT CLOUDY    65  54  67 E17G25    30.37S
Kennedy INTL   CLOUDY    63  52  67 E21G26    30.37S
Newark/Liberty CLOUDY    63  54  72 NE18G25   30.36F
Bronx Bot Gard   N/A     61  52  72 E24       30.39S
Wall St Helipt CLOUDY    64  57  77 NE17G24   30.36F
Teterboro      CLOUDY    62  51  67 NE7G18    30.37R
$$

NYZ177-179-078>081-291800-
LONG ISLAND NEW YORK

CITY           SKY/WX    TMP DP  RH WIND       PRES   REMARKS
Farmingdale    CLOUDY    63  53  70 E12G24    30.38S
MacArthur/ISP  CLOUDY    61  52  72 NE16G25   30.39R
Shirley        CLOUDY    60  53  77 VRB5      30.40S
Riverhead      NOT AVBL
Westhampton    CLOUDY    61  51  70 NE15G28   30.41R
Southampton      N/A     61  54  77 E12       30.37S
Bridgehampton    N/A     61  54  77 N5        30.26R
East Hampton   CLOUDY    60  51  73 NE15G23   30.40S
Montauk          N/A     61  52  72 NE15G24   30.42S
$$

NYZ052-065-067-291800-
HUDSON VALLEY

CITY           SKY/WX    TMP DP  RH WIND       PRES   REMARKS
White Plains   PTSUNNY   64  50  60 E14       30.38F
Newburgh       CLOUDY    61  52  72 E12G17    30.42R
Montgomery     CLOUDY    62  49  62 NE10      30.40S
Poughkeepsie   MOSUNNY   66  45  46 E9        30.39F
Albany         CLOUDY    64  45  49 NE6       30.43F
$$

NJZ001-105-106-008-010-013-015-019>022-104-291800-
NEW JERSEY

CITY           SKY/WX    TMP DP  RH WIND       PRES   REMARKS
Newark/Liberty CLOUDY    63  54  72 NE18G25   30.36F
Teterboro      CLOUDY    62  51  67 NE7G18    30.37R
Caldwell       CLOUDY    62  52  69 E14       30.37F
Morristown     CLOUDY    61  54  77 E18       30.37F
Somerville     CLOUDY    62  53  72 NE6       30.33F
Linden         NOT AVBL
Sussex         CLOUDY    59  52  77 NE9       30.38S
Abdover          N/A     59  52  77 VRB3      30.37S
Trenton        CLOUDY    60  58  92 E14G23    30.33R FOG
Millville      LGT RAIN  65  65 100 E24G32    30.23F
Atlantic City  LGT RAIN  64  62  93 E22G32    30.28R FOG
Wrightstown    LGT RAIN  62  60  95 E15G22    30.30R FOG
Toms River     LGT RAIN  62  61  96 E13       30.34R FOG
Belmar         CLOUDY    62  58  86 E22G30    30.34R
$$

PAZ047>061-062-071-291800-
EASTERN PENNSYLVANIA

CITY           SKY/WX    TMP DP  RH WIND       PRES   REMARKS
Philadelphia   LGT RAIN  64  61  90 E22G29    30.29R
Allentown      CLOUDY    61  53  75 E15G22    30.33S
Scranton       CLOUDY    59  53  80 NE10      30.33S
$$

CTZ002-004>006-009-010-012-RIZ004-006-007-MAZ004-011-015-291800-
SOUTHERN NEW ENGLAND
 IN CT

CITY           SKY/WX    TMP DP  RH WIND       PRES   REMARKS
Bradley INTL   PTSUNNY   64  45  49 NE12      30.45R
Hartford       MOSUNNY   64  48  56 NE15G22   30.44R
Danbury        CLOUDY    63  47  55 NE16      30.41F
Wtrbury/Oxford PTSUNNY   63  45  51 MISG      30.43F
Bridgeport     MOSUNNY   68  49  50 E16       30.40S
Meriden        MOSUNNY   66  47  50 E12G24    30.42S
New Haven      PTSUNNY   67  48  50 NE15G22   30.40F
Chester        FAIR      63  48  59 NE12G21   30.41F
Groton         MOSUNNY   66  50  56 E18       30.40F
Wilimantic     PTSUNNY   62  48  60 NE20G26   30.45R

 IN RI

CITY           SKY/WX    TMP DP  RH WIND       PRES   REMARKS
Providence     PTSUNNY   61  48  62 NE17G28   30.46S
Block Island   NOT AVBL
Westerly       PTSUNNY   63  48  58 NE16G30   30.42S
 IN MA

CITY           SKY/WX    TMP DP  RH WIND       PRES   REMARKS
Boston         CLOUDY    59  48  67 NE17G24   30.50R
Worcester      PTSUNNY   54  45  71 NE15G22   30.47F
Westfield      SUNNY     63  44  50 E7G18     30.45S
Provincetown   CLOUDY    59  52  77 NE17G24   30.48R
Nantucket      CLOUDY    61  54  77 NE18G31   30.41R
$$

ANZ330-335-338-340-345-350-353-355-291800-
COASTAL MARINE OBSERVATIONS


STATION/POSITION TIME  SKY/WX   TEMP    WIND        PRES    VSBY  WAVE
                                AIR SEA DIR/SP/G                  HT/PER
                 (UTC)          (F)     (DEG/KT/KT) (MB)    (MI)  (FT/S)
NY HARB ENTRANCE 1650            63 70   70/ 25/ 31 1026.8         10/ 8
20S FIRE ISLAND  1650            62 68   60/ 29/ 33 1026.4         11/ 8
GREAT SOUTH BAY  1630            61 66   60/ 17/ 23   N/A
23 SSW MONTAUK P 1650            61 65   60/ 27/ 33 1028.5         10/ 7
15 E BARNEGAT LI 1600               70                N/A          11/ 8
HUDSON CANYON    1550            66 69              1025.0         10/ 8
KINGS POINT      1636            62 71              1028.3
EXECUTION ROCKS  1645            64      80/ 19/ 27   N/A
CENTRAL LI SOUND NOT AVBL
EASTERN LI SOUND NOT AVBL
ROBBINS REEF     1648            62      70/ 19/ 21 1027.9
$$


>>>>>>>>>>>>>>>>>>>>>>>>>>>> KEY <<<<<<<<<<<<<<<<<<<<<<<<<<<
>                                                          <
>     SKY/WX - Sky Condition/Present Weather               <
>     TMP    - Temperature in Fahrenheit                   <
>     DP     - Dew Point in Fahrenheit                     <
>     RH     - Relative Humidity in Percent                <
>     WIND   - Direction (from) and Speed in MPH           <
>     PRES   - Mean Sea Level Pressure (inches of Hg)      <
>     WCI    - Wind Chill Index                            <
>     VSB    - VISIBILITY IN MILES                         <
>     HX     - HEAT INDEX                                  <
>     TC     - TEMPERATURE IN CELSIUS                      <
>     VRB    - VARIABLE WIND DIRECTION                     <
>                                                          <
>>>>>>>>>>>>>>>>>>>>>>>>>>>> KEY <<<<<<<<<<<<<<<<<<<<<<<<<<<




USA.gov is the U.S. government's official web portal to all federal, state and local government web resources and services.